{"data":{"norad_id":57109,"epoch":"2026-09-20T10:50:34.173024Z","epoch_age_seconds":125124,"freshness":"FRESH","line1":"1 57109U 23090J   26263.45178441  .00000199  00000+0  16757-4 0  9997","line2":"2 57109  43.0045 262.0756 0001371 294.3454  65.7255 15.27578161180115","mean_motion":15.27578161,"eccentricity":0.0001371,"inclination_deg":43.0045,"raan_deg":262.0756,"arg_perigee_deg":294.3454,"mean_anomaly_deg":65.7255,"bstar":1.6757e-5,"rev_number":18011,"period_min":94.266862198222,"perigee_km":482.11393330403,"apogee_km":483.99527204148,"semimajor_km":6861.1916026728,"source":"CELESTRAK","updated_at":"2026-09-21T09:00:33.559570Z"}}